Location: Caracas
(10.4880°N, 66.8792°W)
Time: 06:22:06
(UTC+00:00)

USA 307 - Pass Details

Date: 03 August 2024
Orbit: 495 x 502 km, 54.0° (Epoch: 10 March)

Event Time Altitude Azimuth Distance (km) Brightness Sun altitude
Rises 23:41:18 0° 342° (NNW) 2,554 6.8 -12.7°
Reaches altitude 10° 23:43:49 10° 355° (N) 1,645 5.6 -13.3°
Maximum altitude 23:46:58 25° 52° (NE) 949 3.7 -14.0°
Enters shadow 23:47:56 22° 79° (ENE) 1,014 3.7 -14.2°
